Location: Cluj-Napoca
(46.7712°N, 23.6236°E)
Time: 12:06:27
(UTC+03:00)

ISS - Pass Details

Date: 14 May 2021
Orbit: 417 x 422 km, 51.6° (Epoch: 15 May)

Event Time Altitude Azimuth Distance (km) Brightness Sun altitude
Rises 03:52:26 0° 295° (WNW) 2,371 -0.1 -16.3°
Reaches altitude 10° 03:54:32 10° 298° (WNW) 1,505 -1.0 -16.1°
Maximum altitude 03:57:55 70° 23° (NNE) 451 -3.5 -15.7°
Drops below altitude 10° 04:01:17 10° 108° (ESE) 1,502 -0.7 -15.4°
Sets 04:03:23 0° 110° (ESE) 2,364 0.3 -15.2°
